Location: Ashtead
(51.3000°N, 0.3000°W)
Time: 13:13:26
(UTC+00:00)

ATLAS 3B R/B - Pass Details

Date: 26 September 2023
Orbit: 954 x 1241 km, 63.8° (Epoch: 27 October)

Event Time Altitude Azimuth Distance (km) Brightness Sun altitude
Rises 03:43:44 0° 315° (NW) 4,110 5.6 -20.4°
Reaches altitude 10° 03:46:27 10° 315° (NW) 3,169 5.0 -20.0°
Maximum altitude 03:54:11 84° 229° (SW) 1,250 2.9 -18.9°
Drops below altitude 10° 04:01:59 10° 142° (SE) 3,196 5.4 -17.8°
Sets 04:04:44 0° 142° (SE) 4,146 6.0 -17.4°
